Regional Weather Roundup
Issued by NWS

Home | Current Version | Previous Version | Graphics & Text | Print | Product List | Glossary On
Versions: 1 2 3 4 5 6 7 8 9 10 11 12 13 14 15 16 17 18 19 20 21 22 23 24 25 26 27 28 29 30 31 32 33 34 35 36 37 38 39 40 41 42 43 44 45 46 47 48 49 50
000
ASUS43 KLOT 060106
RWRIL

ILLINOIS REGIONAL WEATHER ROUNDUP
NATIONAL WEATHER SERVICE CHICAGO/ROMEOVILLE IL
700 PM CST THU MAR 05 2015

NOTE: "FAIR" INDICATES FEW OR NO CLOUDS BELOW 12,000 FEET WITH NO
SIGNIFICANT WEATHER AND/OR OBSTRUCTIONS TO VISIBILITY.

* THESE STATIONS ARE NOT UNDER NWS QUALITY CONTROL. THEY ALSO MAY NOT
  REPORT WEATHER SUCH AS PRECIPITATION OR FOG.

ILZ001-002-007-009-015-016-024-060200-
NORTHWEST ILLINOIS

CITY           SKY/WX    TMP DP  RH WIND       PRES   REMARKS
MOLINE         PTCLDY    11  -1  58 W6        30.56R WCI   1
STERLING*      PTCLDY     7  -2  66 W7        30.54S WCI  -5
SAVANNA*       PTCLDY     8  -4  60 W5        30.56R WCI  -1
$$

ILZ003-004-008-010-011-017-018-060200-
NORTH CENTRAL ILLINOIS

CITY           SKY/WX    TMP DP  RH WIND       PRES   REMARKS
ROCKFORD       PTCLDY     9  -4  55 W3        30.53S
FREEPORT*      MOCLDY     6  -4  61 SW5       30.53R WCI  -2
ROCHELLE*      PTCLDY     4  -1  77 CALM      30.54R
DE KALB*       CLEAR      7  -3  64 CALM      30.52S
PERU*          PTCLDY    10   1  67 NW5       30.56S WCI   1
$$

ILZ005-006-012>014-019>023-060200-
NORTHEAST ILLINOIS

CITY           SKY/WX    TMP DP  RH WIND       PRES   REMARKS
CHICAGO-OHARE  FAIR      11  -2  56 W9        30.53R WCI  -2
CHICAGO-MIDWAY CLEAR     14  -1  51 W12       30.55R WCI   0
AURORA         CLEAR     10  -3  55 SW3       30.54R
LANSING*       CLEAR     12   0  59 W9        30.54R WCI  -1
JOLIET*        CLEAR     10  -1  61 W5        30.57R WCI   2
WAUKEGAN       PTCLDY     9  -5  53 W3        30.51R
DUPAGE AIRPORT CLEAR      8  -3  61 W5        30.52R WCI   0
KANKAKEE*      CLEAR      6  -1  73 W8        30.57R WCI  -7
WHEELING       CLEAR     12  -3  51 W6        30.55R WCI   3
MORRIS*        CLEAR      8   1  73 W7        30.56R WCI  -3
ROMEOVILLE*    CLEAR      8  -1  65 W6        30.55R WCI  -2
NORTHERLY ISL    N/A     16   0  49 W8          N/A  WCI   5
$$

LMZ740>746-060200-
SOUTHERN LAKE MICHIGAN

STATION/POSITION SKY/WX   TEMP    WIND        PRES    VSBY  WAVE
                          AIR SEA DIR/SP/G                  HT/PER
                          (F)     (DEG/KT/KT) (MB)    (MI)  (FT/S)
WAUKEGAN HARBOR            12                   N/A
HARRISON CRIB              16     270/ 12/ 15   N/A
BURNHAM HARBOR             16     250/  6/ 11   N/A
CALUMET HARBOR             15     220/  7/ 11 1032.7R
MICHIGAN CITY              14     320/  1/  2   N/A
$$

ILZ025>027-034>036-040-047-049-050-058-095>099-060200-
WEST-CENTRAL ILLINOIS

CITY           SKY/WX    TMP DP  RH WIND       PRES   REMARKS
QUINCY         CLEAR     14   2  58 SE3       30.56R
GALESBURG*     PTCLDY     6   0  77 CALM      30.56R
MACOMB*        PTCLDY     9   2  72 CALM      30.59R
JACKSONVILLE*  PTCLDY    14   0  53 CALM      30.59R
PITTSFIELD*    PTCLDY    15   3  58 CALM      30.58R
$$

ILZ028>032-037-038-041>044-048-051>054-059>061-060200-
CENTRAL ILLINOIS

CITY           SKY/WX    TMP DP  RH WIND       PRES   REMARKS
PONTIAC        PTCLDY    10   1  69 W6        30.58R WCI   0
BLOOMINGTON    PTCLDY    11   1  64 N3        30.56R
DECATUR        PTCLDY    12  -1  56 W3        30.58R
PEORIA         FAIR      12  -1  56 W3        30.58R
LACON*         PTCLDY     8  -2  66 CALM      30.58R
LINCOLN*       PTCLDY    13   2  61 CALM      30.61R
SPRINGFIELD    PTCLDY    12  -1  56 CALM      30.59R
TAYLORVILLE    PTCLDY    12   3  67 CALM      30.59R
$$

ILZ033-039-045-046-055>057-062-063-060200-
EAST-CENTRAL ILLINOIS

CITY           SKY/WX    TMP DP  RH WIND       PRES   REMARKS
CHAMPAIGN      PTCLDY     7  -2  66 N3        30.57R
DANVILLE*      PTCLDY     8  -1  67 NW5       30.54R WCI  -1
RANTOUL*       PTCLDY    10   2  71 NW3       30.56S
MATTOON        PTCLDY     8  -1  66 W3        30.57R
PARIS*         PTCLDY     8   1  75 CALM      30.59R
$$

ILZ079-100>102-060200-
SOUTHWEST ILLINOIS

CITY           SKY/WX    TMP DP  RH WIND       PRES   REMARKS
BELLEVILLE     CLEAR     19   7  61 NE6       30.59R WCI  10
CAHOKIA*       CLEAR     22   8  55 NE7       30.59R WCI  13
SPARTA*        CLEAR     19   8  62 NE5       30.59R WCI  12
$$

ILZ064>066-069>071-074>076-080>082-084>086-088>090-092>094-060200-
SOUTH-CENTRAL ILLINOIS

CITY           SKY/WX    TMP DP  RH WIND       PRES   REMARKS
CARBONDALE     CLEAR     17   5  59 NE3       30.59S
CAIRO*         PTCLDY    22   6  50 N3        30.59R
EFFINGHAM*     PTCLDY    13  -1  54 NW3       30.61R
MARION         PTCLDY    14   7  73 N3        30.59F
MT. VERNON     PTCLDY    16   1  53 N3        30.59S
CENTRALIA*     CLEAR     16   6  64 N3        30.59R
SALEM*         CLEAR     16   5  62 N6        30.60R WCI   7
METROPOLIS*    PTCLDY    19   8  62 N5        30.58S WCI  12
$$

ILZ067-068-072-073-078-083-087-091-060200-
SOUTHEAST ILLINOIS

CITY           SKY/WX    TMP DP  RH WIND       PRES   REMARKS
LAWRENCEVILLE  CLEAR     13   4  67 N9        30.60R WCI   1
FLORA*         CLEAR     15   4  62 N5        30.61R WCI   7
FAIRFIELD*     PTCLDY    16   4  60 CALM      30.60R
HARRISBURG*    PTCLDY    15   3  59 N5        30.61R WCI   8
ROBINSON*      PTCLDY    11   3  68 NW6       30.61R WCI   2
CARMI*         PTCLDY    14   6  69 N5        30.60R WCI   6
$$

ABBREVIATIONS USED IN REMARKS
   TC - TEMPERATURE IN CELSIUS
  WCI - WIND CHILL INDEX
   HX - HEAT INDEX
  VSB - VISIBILITY
$$



USA.gov is the U.S. government's official web portal to all federal, state and local government web resources and services.